Time,TemperatureF,DewpointF,PressureIn,WindDirection,WindDirectionDegrees,WindSpeedMPH,WindSpeedGustMPH,Humidity,HourlyPrecipIn,Conditions,Clouds,dailyrainin,SoftwareType,DateUTC
2013-04-19 00:01:00,34.0,30.5,29.51,SW,233,6.0,16.0,87,0.00,,,0.00,Wunderground v.1.15,2013-04-19 05:01:00,
2013-04-19 00:07:00,33.9,30.7,29.51,NNW,332,6.0,16.0,88,0.00,,,0.00,Wunderground v.1.15,2013-04-19 05:07:00,
2013-04-19 00:13:00,33.9,30.4,29.51,NW,311,6.0,16.0,87,0.00,,,0.00,Wunderground v.1.15,2013-04-19 05:13:00,
2013-04-19 00:19:00,33.9,30.4,29.52,WNW,302,5.0,16.0,87,0.00,,,0.00,Wunderground v.1.15,2013-04-19 05:19:00,
2013-04-19 00:25:00,33.9,30.4,29.52,West,281,6.0,16.0,87,0.00,,,0.00,Wunderground v.1.15,2013-04-19 05:25:00,
2013-04-19 00:31:00,33.8,30.3,29.52,NW,309,6.0,16.0,87,0.00,,,0.00,Wunderground v.1.15,2013-04-19 05:31:00,
2013-04-19 00:37:00,33.7,30.2,29.51,WNW,283,6.0,16.0,87,0.00,,,0.00,Wunderground v.1.15,2013-04-19 05:37:00,
2013-04-19 00:43:00,33.7,30.2,29.51,NW,312,5.0,16.0,87,0.00,,,0.00,Wunderground v.1.15,2013-04-19 05:43:00,
2013-04-19 00:49:00,33.6,30.1,29.51,WNW,300,6.0,6.0,87,0.00,,,0.00,Wunderground v.1.15,2013-04-19 05:49:00,
2013-04-19 00:55:00,33.5,30.0,29.51,NW,307,6.0,16.0,87,0.00,,,0.00,Wunderground v.1.15,2013-04-19 05:55:00,
2013-04-19 01:01:00,33.5,30.3,29.51,NW,311,5.0,16.0,88,0.00,,,0.00,Wunderground v.1.15,2013-04-19 06:01:00,
2013-04-19 01:07:00,33.4,30.2,29.50,WNW,283,4.0,16.0,88,0.00,,,0.00,Wunderground v.1.15,2013-04-19 06:07:00,
2013-04-19 01:13:00,33.4,29.9,29.51,NNW,329,6.0,16.0,87,0.00,,,0.00,Wunderground v.1.15,2013-04-19 06:13:00,
2013-04-19 01:19:00,33.4,30.2,29.50,WNW,290,6.0,6.0,88,0.00,,,0.00,Wunderground v.1.15,2013-04-19 06:19:00,
2013-04-19 01:25:00,33.4,29.9,29.50,NW,323,5.0,16.0,87,0.00,,,0.00,Wunderground v.1.15,2013-04-19 06:25:00,
2013-04-19 01:31:00,33.5,30.3,29.50,WNW,288,6.0,16.0,88,0.00,,,0.00,Wunderground v.1.15,2013-04-19 06:31:00,
2013-04-19 01:37:00,33.5,30.3,29.50,NW,309,6.0,16.0,88,0.00,,,0.00,Wunderground v.1.15,2013-04-19 06:37:00,
2013-04-19 01:43:00,33.5,30.3,29.50,West,262,6.0,16.0,88,0.00,,,0.00,Wunderground v.1.15,2013-04-19 06:43:00,
2013-04-19 01:49:00,33.5,30.3,29.50,WSW,242,5.0,5.0,88,0.00,,,0.00,Wunderground v.1.15,2013-04-19 06:49:00,
2013-04-19 01:55:00,33.4,30.5,29.50,NW,309,5.0,16.0,89,0.00,,,0.00,Wunderground v.1.15,2013-04-19 06:55:00,
2013-04-19 02:01:00,33.3,30.4,29.50,WNW,297,6.0,16.0,89,0.00,,,0.00,Wunderground v.1.15,2013-04-19 07:01:00,
2013-04-19 02:07:00,33.3,30.4,29.50,West,266,7.0,16.0,89,0.00,,,0.00,Wunderground v.1.15,2013-04-19 07:07:00,
2013-04-19 02:13:00,33.4,30.2,29.50,NW,309,7.0,11.0,88,0.00,,,0.00,Wunderground v.1.15,2013-04-19 07:13:00,
2013-04-19 02:19:00,33.5,30.3,29.50,WNW,293,7.0,7.0,88,0.00,,,0.00,Wunderground v.1.15,2013-04-19 07:19:00,
2013-04-19 02:25:00,33.5,30.3,29.50,NW,307,6.0,16.0,88,0.00,,,0.00,Wunderground v.1.15,2013-04-19 07:25:00,
2013-04-19 02:31:00,33.5,30.3,29.50,West,262,6.0,16.0,88,0.00,,,0.00,Wunderground v.1.15,2013-04-19 07:31:00,
2013-04-19 02:37:00,33.4,30.2,29.50,NW,326,7.0,16.0,88,0.00,,,0.00,Wunderground v.1.15,2013-04-19 07:37:00,
2013-04-19 02:43:00,33.4,30.2,29.50,NW,309,6.0,16.0,88,0.00,,,0.00,Wunderground v.1.15,2013-04-19 07:43:00,
2013-04-19 02:49:00,33.3,30.1,29.50,WNW,295,7.0,16.0,88,0.00,,,0.00,Wunderground v.1.15,2013-04-19 07:49:00,
2013-04-19 02:55:00,33.2,30.0,29.50,West,279,7.0,16.0,88,0.00,,,0.00,Wunderground v.1.15,2013-04-19 07:55:00,
2013-04-19 03:01:00,33.2,30.0,29.50,NW,311,7.0,16.0,88,0.00,,,0.00,Wunderground v.1.15,2013-04-19 08:01:00,
2013-04-19 03:07:00,33.2,30.0,29.50,WSW,250,6.0,16.0,88,0.00,,,0.00,Wunderground v.1.15,2013-04-19 08:07:00,
2013-04-19 03:13:00,33.1,29.9,29.50,WNW,297,6.0,16.0,88,0.00,,,0.00,Wunderground v.1.15,2013-04-19 08:13:00,
2013-04-19 03:19:00,33.2,29.8,29.50,West,269,6.0,6.0,87,0.00,,,0.00,Wunderground v.1.15,2013-04-19 08:19:00,
2013-04-19 03:25:00,33.2,29.8,29.50,NW,311,6.0,16.0,87,0.00,,,0.00,Wunderground v.1.15,2013-04-19 08:25:00,
2013-04-19 03:31:00,33.2,29.8,29.50,NW,311,7.0,16.0,87,0.00,,,0.00,Wunderground v.1.15,2013-04-19 08:31:00,
2013-04-19 03:37:00,33.2,29.8,29.50,NW,309,6.0,16.0,87,0.00,,,0.00,Wunderground v.1.15,2013-04-19 08:37:00,
2013-04-19 03:43:00,33.2,29.8,29.50,NW,311,7.0,16.0,87,0.00,,,0.00,Wunderground v.1.15,2013-04-19 08:43:00,
2013-04-19 03:49:00,33.2,29.8,29.50,West,280,6.0,6.0,87,0.00,,,0.00,Wunderground v.1.15,2013-04-19 08:49:00,
2013-04-19 03:55:00,33.2,29.8,29.50,NW,319,6.0,16.0,87,0.00,,,0.00,Wunderground v.1.15,2013-04-19 08:55:00,
2013-04-19 04:01:00,33.3,29.8,29.50,NW,311,7.0,16.0,87,0.00,,,0.00,Wunderground v.1.15,2013-04-19 09:01:00,
2013-04-19 04:07:00,33.3,29.8,29.50,WNW,300,8.0,16.0,87,0.00,,,0.00,Wunderground v.1.15,2013-04-19 09:07:00,
2013-04-19 04:13:00,33.3,29.8,29.50,NNW,343,7.0,16.0,87,0.00,,,0.00,Wunderground v.1.15,2013-04-19 09:13:00,
2013-04-19 04:19:00,33.3,29.8,29.50,NW,304,7.0,7.0,87,0.00,,,0.00,Wunderground v.1.15,2013-04-19 09:19:00,
2013-04-19 04:25:00,33.3,29.8,29.50,West,278,6.0,16.0,87,0.00,,,0.00,Wunderground v.1.15,2013-04-19 09:25:00,
2013-04-19 04:31:00,33.2,29.8,29.50,WNW,293,6.0,16.0,87,0.00,,,0.00,Wunderground v.1.15,2013-04-19 09:31:00,
2013-04-19 04:37:00,33.2,29.8,29.51,WNW,298,6.0,16.0,87,0.00,,,0.00,Wunderground v.1.15,2013-04-19 09:37:00,
2013-04-19 04:43:00,33.2,29.8,29.51,NW,326,7.0,16.0,87,0.00,,,0.00,Wunderground v.1.15,2013-04-19 09:43:00,
2013-04-19 04:49:00,33.1,29.7,29.50,NNW,335,7.0,16.0,87,0.00,,,0.00,Wunderground v.1.15,2013-04-19 09:49:00,
2013-04-19 04:55:00,33.0,29.6,29.51,West,281,8.0,16.0,87,0.00,,,0.00,Wunderground v.1.15,2013-04-19 09:55:00,
2013-04-19 05:01:00,32.9,29.7,29.51,NW,326,8.0,12.0,88,0.00,,,0.00,Wunderground v.1.15,2013-04-19 10:01:00,
2013-04-19 05:07:00,32.8,29.6,29.51,NW,326,8.0,16.0,88,0.00,,,0.00,Wunderground v.1.15,2013-04-19 10:07:00,
2013-04-19 05:13:00,32.8,29.6,29.51,WNW,302,8.0,16.0,88,0.00,,,0.00,Wunderground v.1.15,2013-04-19 10:13:00,
2013-04-19 05:19:00,32.7,29.5,29.51,West,276,8.0,8.0,88,0.00,,,0.00,Wunderground v.1.15,2013-04-19 10:19:00,
2013-04-19 05:25:00,32.7,29.5,29.51,NW,323,7.0,16.0,88,0.00,,,0.00,Wunderground v.1.15,2013-04-19 10:25:00,
2013-04-19 05:31:00,32.7,29.3,29.52,NW,315,8.0,16.0,87,0.00,,,0.00,Wunderground v.1.15,2013-04-19 10:31:00,
2013-04-19 05:37:00,32.7,29.5,29.52,West,260,7.0,16.0,88,0.00,,,0.00,Wunderground v.1.15,2013-04-19 10:37:00,
2013-04-19 05:43:00,32.7,29.3,29.52,NW,309,7.0,16.0,87,0.00,,,0.00,Wunderground v.1.15,2013-04-19 10:43:00,
2013-04-19 05:49:00,32.6,29.2,29.52,NW,307,8.0,16.0,87,0.00,,,0.00,Wunderground v.1.15,2013-04-19 10:49:00,
2013-04-19 05:55:00,32.6,29.2,29.52,WSW,256,7.0,16.0,87,0.00,,,0.00,Wunderground v.1.15,2013-04-19 10:55:00,
2013-04-19 06:01:00,32.6,28.9,29.52,WNW,293,7.0,16.0,86,0.00,,,0.00,Wunderground v.1.15,2013-04-19 11:01:00,
2013-04-19 06:07:00,32.6,28.9,29.52,WNW,293,7.0,16.0,86,0.00,,,0.00,Wunderground v.1.15,2013-04-19 11:07:00,
2013-04-19 06:13:00,32.6,29.2,29.52,NW,314,6.0,16.0,87,0.00,,,0.00,Wunderground v.1.15,2013-04-19 11:13:00,
2013-04-19 06:19:00,32.5,29.1,29.53,NNW,332,5.0,16.0,87,0.00,,,0.00,Wunderground v.1.15,2013-04-19 11:19:00,
2013-04-19 06:25:00,32.5,28.8,29.53,NW,313,6.0,16.0,86,0.00,,,0.00,Wunderground v.1.15,2013-04-19 11:25:00,
2013-04-19 06:31:00,32.5,29.1,29.53,WNW,298,7.0,16.0,87,0.00,,,0.00,Wunderground v.1.15,2013-04-19 11:31:00,
2013-04-19 06:37:00,32.4,29.0,29.53,WNW,298,7.0,16.0,87,0.00,,,0.00,Wunderground v.1.15,2013-04-19 11:37:00,
2013-04-19 06:43:00,32.4,29.0,29.54,NW,326,6.0,16.0,87,0.00,,,0.00,Wunderground v.1.15,2013-04-19 11:43:00,
2013-04-19 06:49:00,32.4,29.0,29.54,NW,322,6.0,16.0,87,0.00,,,0.00,Wunderground v.1.15,2013-04-19 11:49:00,
2013-04-19 06:55:00,32.4,28.7,29.54,WNW,301,6.0,16.0,86,0.00,,,0.00,Wunderground v.1.15,2013-04-19 11:55:00,
2013-04-19 07:01:00,32.4,29.0,29.54,West,281,6.0,16.0,87,0.00,,,0.00,Wunderground v.1.15,2013-04-19 12:01:00,
2013-04-19 07:07:00,32.4,28.7,29.55,West,281,6.0,16.0,86,0.00,,,0.00,Wunderground v.1.15,2013-04-19 12:07:00,
2013-04-19 07:13:00,32.4,28.7,29.55,WNW,301,6.0,16.0,86,0.00,,,0.00,Wunderground v.1.15,2013-04-19 12:13:00,
2013-04-19 07:19:00,32.4,28.7,29.55,WNW,298,6.0,16.0,86,0.00,,,0.00,Wunderground v.1.15,2013-04-19 12:19:00,
2013-04-19 07:25:00,32.4,28.7,29.55,West,277,6.0,16.0,86,0.00,,,0.00,Wunderground v.1.15,2013-04-19 12:25:00,
2013-04-19 07:31:00,32.4,28.7,29.55,WNW,300,6.0,16.0,86,0.00,,,0.00,Wunderground v.1.15,2013-04-19 12:31:00,
2013-04-19 07:37:00,32.4,28.7,29.55,NW,309,7.0,16.0,86,0.00,,,0.00,Wunderground v.1.15,2013-04-19 12:37:00,
2013-04-19 07:43:00,32.4,28.4,29.56,NNW,329,8.0,16.0,85,0.00,,,0.00,Wunderground v.1.15,2013-04-19 12:43:00,
2013-04-19 07:49:00,32.5,28.5,29.56,NW,326,8.0,8.0,85,0.00,,,0.00,Wunderground v.1.15,2013-04-19 12:49:00,
2013-04-19 07:55:00,32.6,28.6,29.56,NW,311,7.0,16.0,85,0.00,,,0.00,Wunderground v.1.15,2013-04-19 12:55:00,
2013-04-19 08:01:00,32.7,28.7,29.56,NW,309,7.0,16.0,85,0.00,,,0.00,Wunderground v.1.15,2013-04-19 13:01:00,
2013-04-19 08:07:00,32.8,28.5,29.56,WNW,300,6.0,16.0,84,0.00,,,0.00,Wunderground v.1.15,2013-04-19 13:07:00,
2013-04-19 08:13:00,32.8,28.5,29.56,WNW,300,7.0,13.0,84,0.00,,,0.00,Wunderground v.1.15,2013-04-19 13:13:00,
2013-04-19 08:19:00,32.8,28.5,29.56,WNW,290,7.0,7.0,84,0.00,,,0.00,Wunderground v.1.15,2013-04-19 13:19:00,
2013-04-19 08:25:00,32.8,28.2,29.56,NW,304,7.0,16.0,83,0.00,,,0.00,Wunderground v.1.15,2013-04-19 13:25:00,
2013-04-19 08:31:00,32.9,28.6,29.56,NW,315,7.0,16.0,84,0.00,,,0.00,Wunderground v.1.15,2013-04-19 13:31:00,
2013-04-19 08:37:00,32.7,28.1,29.57,WNW,285,8.0,16.0,83,0.00,,,0.00,Wunderground v.1.15,2013-04-19 13:37:00,
2013-04-19 08:43:00,32.7,28.1,29.57,WSW,250,8.0,16.0,83,0.00,,,0.00,Wunderground v.1.15,2013-04-19 13:43:00,
2013-04-19 08:49:00,32.7,28.1,29.57,NW,323,8.0,8.0,83,0.00,,,0.00,Wunderground v.1.15,2013-04-19 13:49:00,
2013-04-19 08:55:00,32.7,28.1,29.57,NW,309,7.0,16.0,83,0.00,,,0.00,Wunderground v.1.15,2013-04-19 13:55:00,
2013-04-19 09:01:00,32.7,28.1,29.57,WNW,295,7.0,16.0,83,0.00,,,0.00,Wunderground v.1.15,2013-04-19 14:01:00,
2013-04-19 09:07:00,32.7,28.1,29.58,WNW,301,7.0,16.0,83,0.00,,,0.00,Wunderground v.1.15,2013-04-19 14:07:00,
2013-04-19 09:13:00,32.8,28.2,29.58,West,273,6.0,16.0,83,0.00,,,0.00,Wunderground v.1.15,2013-04-19 14:13:00,
2013-04-19 09:19:00,33.0,28.1,29.58,West,276,6.0,6.0,82,0.00,,,0.00,Wunderground v.1.15,2013-04-19 14:19:00,
2013-04-19 09:25:00,33.3,28.1,29.58,WNW,286,7.0,16.0,81,0.00,,,0.00,Wunderground v.1.15,2013-04-19 14:25:00,
2013-04-19 09:31:00,33.4,28.5,29.58,WNW,293,7.0,16.0,82,0.00,,,0.00,Wunderground v.1.15,2013-04-19 14:31:00,
2013-04-19 09:37:00,33.6,28.4,29.58,NW,318,7.0,16.0,81,0.00,,,0.00,Wunderground v.1.15,2013-04-19 14:37:00,
2013-04-19 09:43:00,33.5,27.7,29.59,WSW,242,8.0,16.0,79,0.00,,,0.00,Wunderground v.1.15,2013-04-19 14:43:00,
2013-04-19 09:49:00,33.4,27.9,29.59,NW,304,9.0,9.0,80,0.00,,,0.00,Wunderground v.1.15,2013-04-19 14:49:00,
2013-04-19 09:55:00,33.4,27.9,29.60,NW,323,8.0,16.0,80,0.00,,,0.00,Wunderground v.1.15,2013-04-19 14:55:00,
2013-04-19 10:01:00,33.5,28.0,29.60,NNW,337,8.0,16.0,80,0.00,,,0.00,Wunderground v.1.15,2013-04-19 15:01:00,
2013-04-19 10:07:00,33.3,27.5,29.60,WNW,295,9.0,16.0,79,0.00,,,0.00,Wunderground v.1.15,2013-04-19 15:07:00,
2013-04-19 10:13:00,33.6,28.1,29.60,West,265,7.0,16.0,80,0.00,,,0.00,Wunderground v.1.15,2013-04-19 15:13:00,
2013-04-19 10:19:00,33.7,28.2,29.61,WSW,256,5.0,5.0,80,0.00,,,0.00,Wunderground v.1.15,2013-04-19 15:19:00,
2013-04-19 10:25:00,33.5,27.4,29.61,West,278,7.0,16.0,78,0.00,,,0.00,Wunderground v.1.15,2013-04-19 15:25:00,
2013-04-19 10:31:00,33.5,27.7,29.61,West,277,8.0,16.0,79,0.00,,,0.00,Wunderground v.1.15,2013-04-19 15:31:00,
2013-04-19 10:37:00,33.7,27.6,29.62,SW,228,7.0,16.0,78,0.00,,,0.00,Wunderground v.1.15,2013-04-19 15:37:00,
2013-04-19 10:43:00,33.9,27.4,29.62,WNW,294,7.0,16.0,77,0.00,,,0.00,Wunderground v.1.15,2013-04-19 15:43:00,
2013-04-19 10:49:00,34.2,27.4,29.63,WNW,290,7.0,7.0,76,0.00,,,0.00,Wunderground v.1.15,2013-04-19 15:49:00,
2013-04-19 10:55:00,34.4,27.0,29.63,NNW,329,8.0,16.0,74,0.00,,,0.00,Wunderground v.1.15,2013-04-19 15:55:00,
2013-04-19 11:01:00,34.4,27.3,29.63,West,260,8.0,16.0,75,0.00,,,0.00,Wunderground v.1.15,2013-04-19 16:01:00,
2013-04-19 11:07:00,34.2,27.4,29.63,WNW,295,7.0,16.0,76,0.00,,,0.00,Wunderground v.1.15,2013-04-19 16:07:00,
2013-04-19 11:13:00,34.2,27.4,29.63,WNW,295,7.0,16.0,76,0.00,,,0.00,Wunderground v.1.15,2013-04-19 16:13:00,
2013-04-19 11:19:00,34.1,27.6,29.64,NW,315,7.0,16.0,77,0.00,,,0.00,Wunderground v.1.15,2013-04-19 16:19:00,
2013-04-19 11:25:00,34.1,27.6,29.64,NW,315,7.0,16.0,77,0.00,,,0.00,Wunderground v.1.15,2013-04-19 16:25:00,
2013-04-19 11:31:00,34.5,28.3,29.64,WNW,295,5.0,16.0,78,0.00,,,0.00,Wunderground v.1.15,2013-04-19 16:31:00,
2013-04-19 11:37:00,34.3,28.2,29.64,NW,318,6.0,16.0,78,0.00,,,0.00,Wunderground v.1.15,2013-04-19 16:37:00,
2013-04-19 11:43:00,34.1,28.0,29.64,WNW,293,7.0,16.0,78,0.00,,,0.00,Wunderground v.1.15,2013-04-19 16:43:00,
2013-04-19 11:49:00,34.3,27.5,29.65,WNW,283,6.0,6.0,76,0.00,,,0.00,Wunderground v.1.15,2013-04-19 16:49:00,
2013-04-19 11:55:00,34.4,27.6,29.65,West,264,6.0,16.0,76,0.00,,,0.00,Wunderground v.1.15,2013-04-19 16:55:00,
2013-04-19 12:01:00,34.5,27.4,29.65,NW,304,7.0,16.0,75,0.00,,,0.00,Wunderground v.1.15,2013-04-19 17:01:00,
2013-04-19 12:07:00,34.6,27.2,29.65,NW,318,8.0,16.0,74,0.00,,,0.00,Wunderground v.1.15,2013-04-19 17:07:00,
2013-04-19 12:13:00,34.6,27.8,29.65,West,281,8.0,16.0,76,0.00,,,0.00,Wunderground v.1.15,2013-04-19 17:13:00,
2013-04-19 12:19:00,34.9,28.1,29.66,West,280,7.0,7.0,76,0.00,,,0.00,Wunderground v.1.15,2013-04-19 17:19:00,
2013-04-19 12:25:00,35.3,27.8,29.66,NW,326,6.0,16.0,74,0.00,,,0.00,Wunderground v.1.15,2013-04-19 17:25:00,
2013-04-19 12:31:00,35.4,27.6,29.66,WNW,290,6.0,16.0,73,0.00,,,0.00,Wunderground v.1.15,2013-04-19 17:31:00,
2013-04-19 12:37:00,35.4,27.6,29.67,WNW,295,7.0,16.0,73,0.00,,,0.00,Wunderground v.1.15,2013-04-19 17:37:00,
2013-04-19 12:43:00,35.1,27.6,29.67,NW,314,8.0,16.0,74,0.00,,,0.00,Wunderground v.1.15,2013-04-19 17:43:00,
2013-04-19 12:49:00,35.0,27.9,29.67,SE,127,8.0,8.0,75,0.00,,,0.00,Wunderground v.1.15,2013-04-19 17:49:00,
2013-04-19 12:55:00,35.1,27.6,29.67,WNW,284,7.0,16.0,74,0.00,,,0.00,Wunderground v.1.15,2013-04-19 17:55:00,
2013-04-19 13:01:00,35.4,27.6,29.67,NW,305,7.0,16.0,73,0.00,,,0.00,Wunderground v.1.15,2013-04-19 18:01:00,
2013-04-19 13:07:00,35.2,27.7,29.67,WNW,293,8.0,16.0,74,0.00,,,0.00,Wunderground v.1.15,2013-04-19 18:07:00,
2013-04-19 13:13:00,35.3,28.5,29.68,SSW,208,7.0,16.0,76,0.00,,,0.00,Wunderground v.1.15,2013-04-19 18:13:00,
2013-04-19 13:19:00,35.2,28.1,29.68,WNW,302,8.0,16.0,75,0.00,,,0.00,Wunderground v.1.15,2013-04-19 18:19:00,
2013-04-19 13:25:00,35.1,28.3,29.68,West,266,9.0,16.0,76,0.00,,,0.00,Wunderground v.1.15,2013-04-19 18:25:00,
2013-04-19 13:31:00,35.4,28.6,29.68,SW,231,7.0,16.0,76,0.00,,,0.00,Wunderground v.1.15,2013-04-19 18:31:00,
2013-04-19 13:37:00,35.4,27.6,29.68,NW,319,7.0,16.0,73,0.00,,,0.00,Wunderground v.1.15,2013-04-19 18:37:00,
2013-04-19 13:43:00,35.6,27.1,29.69,WNW,283,8.0,16.0,71,0.00,,,0.00,Wunderground v.1.15,2013-04-19 18:43:00,
2013-04-19 13:49:00,35.8,27.3,29.69,NW,304,7.0,7.0,71,0.00,,,0.00,Wunderground v.1.15,2013-04-19 18:49:00,
2013-04-19 13:55:00,36.3,27.8,29.69,West,277,6.0,16.0,71,0.00,,,0.00,Wunderground v.1.15,2013-04-19 18:55:00,
2013-04-19 14:01:00,36.2,27.7,29.69,NW,315,7.0,16.0,71,0.00,,,0.00,Wunderground v.1.15,2013-04-19 19:01:00,
2013-04-19 14:07:00,36.3,27.8,29.70,NW,313,8.0,16.0,71,0.00,,,0.00,Wunderground v.1.15,2013-04-19 19:07:00,
2013-04-19 14:13:00,36.2,27.4,29.70,NNW,335,8.0,16.0,70,0.00,,,0.00,Wunderground v.1.15,2013-04-19 19:13:00,
2013-04-19 14:19:00,36.6,27.7,29.70,WNW,284,9.0,9.0,70,0.00,,,0.00,Wunderground v.1.15,2013-04-19 19:19:00,
2013-04-19 14:25:00,36.5,27.3,29.70,NNW,344,8.0,16.0,69,0.00,,,0.00,Wunderground v.1.15,2013-04-19 19:25:00,
2013-04-19 14:31:00,36.5,28.0,29.71,WSW,246,6.0,16.0,71,0.00,,,0.00,Wunderground v.1.15,2013-04-19 19:31:00,
2013-04-19 14:37:00,36.5,26.9,29.71,NW,321,7.0,16.0,68,0.00,,,0.00,Wunderground v.1.15,2013-04-19 19:37:00,
2013-04-19 14:43:00,36.5,27.6,29.71,NW,311,7.0,16.0,70,0.00,,,0.00,Wunderground v.1.15,2013-04-19 19:43:00,
2013-04-19 14:49:00,36.5,27.3,29.71,WSW,249,7.0,7.0,69,0.00,,,0.00,Wunderground v.1.15,2013-04-19 19:49:00,
2013-04-19 14:55:00,36.3,27.4,29.72,NNW,335,7.0,16.0,70,0.00,,,0.00,Wunderground v.1.15,2013-04-19 19:55:00,
2013-04-19 15:01:00,36.4,27.2,29.72,NW,318,7.0,16.0,69,0.00,,,0.00,Wunderground v.1.15,2013-04-19 20:01:00,
2013-04-19 15:07:00,36.4,26.8,29.72,NW,309,8.0,16.0,68,0.00,,,0.00,Wunderground v.1.15,2013-04-19 20:07:00,
2013-04-19 15:13:00,36.4,26.8,29.73,West,276,7.0,16.0,68,0.00,,,0.00,Wunderground v.1.15,2013-04-19 20:13:00,
2013-04-19 15:19:00,36.2,27.4,29.73,NW,316,7.0,7.0,70,0.00,,,0.00,Wunderground v.1.15,2013-04-19 20:19:00,
2013-04-19 15:25:00,36.1,27.3,29.73,NNW,339,5.0,16.0,70,0.00,,,0.00,Wunderground v.1.15,2013-04-19 20:25:00,
2013-04-19 15:31:00,35.8,27.0,29.74,WNW,287,8.0,16.0,70,0.00,,,0.00,Wunderground v.1.15,2013-04-19 20:31:00,
2013-04-19 15:37:00,36.0,27.2,29.74,NW,305,8.0,16.0,70,0.00,,,0.00,Wunderground v.1.15,2013-04-19 20:37:00,
2013-04-19 15:43:00,36.0,26.5,29.74,WNW,298,7.0,16.0,68,0.00,,,0.00,Wunderground v.1.15,2013-04-19 20:43:00,
2013-04-19 15:49:00,36.1,26.9,29.74,NW,318,6.0,16.0,69,0.00,,,0.00,Wunderground v.1.15,2013-04-19 20:49:00,
2013-04-19 15:55:00,35.8,26.6,29.75,WNW,291,7.0,16.0,69,0.00,,,0.00,Wunderground v.1.15,2013-04-19 20:55:00,
2013-04-19 16:01:00,35.7,26.2,29.75,NW,319,8.0,9.0,68,0.00,,,0.00,Wunderground v.1.15,2013-04-19 21:01:00,
2013-04-19 16:07:00,35.9,26.4,29.75,WSW,252,7.0,16.0,68,0.00,,,0.00,Wunderground v.1.15,2013-04-19 21:07:00,
2013-04-19 16:13:00,36.1,26.9,29.75,WSW,255,7.0,16.0,69,0.00,,,0.00,Wunderground v.1.15,2013-04-19 21:13:00,
2013-04-19 16:19:00,35.9,26.0,29.76,NW,326,7.0,16.0,67,0.00,,,0.00,Wunderground v.1.15,2013-04-19 21:19:00,
2013-04-19 16:25:00,35.5,26.3,29.76,WNW,297,8.0,16.0,69,0.00,,,0.00,Wunderground v.1.15,2013-04-19 21:25:00,
2013-04-19 16:31:00,35.3,26.8,29.77,NW,309,7.0,16.0,71,0.00,,,0.00,Wunderground v.1.15,2013-04-19 21:31:00,
2013-04-19 16:37:00,35.5,27.0,29.77,West,276,6.0,16.0,71,0.00,,,0.00,Wunderground v.1.15,2013-04-19 21:37:00,
2013-04-19 16:43:00,35.4,26.2,29.78,NW,318,6.0,16.0,69,0.00,,,0.00,Wunderground v.1.15,2013-04-19 21:43:00,
2013-04-19 16:49:00,35.4,26.6,29.78,NW,326,7.0,16.0,70,0.00,,,0.00,Wunderground v.1.15,2013-04-19 21:49:00,
2013-04-19 16:55:00,35.4,26.9,29.78,West,271,7.0,16.0,71,0.00,,,0.00,Wunderground v.1.15,2013-04-19 21:55:00,
2013-04-19 17:01:00,35.3,26.8,29.79,NW,314,7.0,16.0,71,0.00,,,0.00,Wunderground v.1.15,2013-04-19 22:01:00,
2013-04-19 17:07:00,35.3,27.2,29.79,WNW,297,6.0,16.0,72,0.00,,,0.00,Wunderground v.1.15,2013-04-19 22:07:00,
2013-04-19 17:13:00,35.3,26.8,29.79,NNW,340,5.0,16.0,71,0.00,,,0.00,Wunderground v.1.15,2013-04-19 22:13:00,
2013-04-19 17:19:00,35.2,27.1,29.80,NW,306,6.0,6.0,72,0.00,,,0.00,Wunderground v.1.15,2013-04-19 22:19:00,
2013-04-19 17:25:00,35.2,27.1,29.81,WNW,285,6.0,16.0,72,0.00,,,0.00,Wunderground v.1.15,2013-04-19 22:25:00,
2013-04-19 17:31:00,35.4,27.3,29.81,NW,309,6.0,16.0,72,0.00,,,0.00,Wunderground v.1.15,2013-04-19 22:31:00,
2013-04-19 17:37:00,35.5,27.0,29.81,NW,313,5.0,16.0,71,0.00,,,0.00,Wunderground v.1.15,2013-04-19 22:37:00,
2013-04-19 17:43:00,35.6,26.8,29.81,NNW,332,5.0,16.0,70,0.00,,,0.00,Wunderground v.1.15,2013-04-19 22:43:00,
2013-04-19 17:49:00,35.7,26.5,29.82,NNW,328,6.0,16.0,69,0.00,,,0.00,Wunderground v.1.15,2013-04-19 22:49:00,
2013-04-19 17:55:00,35.6,27.1,29.82,WSW,241,6.0,16.0,71,0.00,,,0.00,Wunderground v.1.15,2013-04-19 22:55:00,
2013-04-19 18:01:00,35.5,26.3,29.82,NNW,337,6.0,17.0,69,0.00,,,0.00,Wunderground v.1.15,2013-04-19 23:01:00,
2013-04-19 18:07:00,35.4,26.2,29.83,NW,321,7.0,17.0,69,0.00,,,0.00,Wunderground v.1.15,2013-04-19 23:07:00,
2013-04-19 18:13:00,35.4,26.2,29.83,WNW,302,7.0,16.0,69,0.00,,,0.00,Wunderground v.1.15,2013-04-19 23:13:00,
2013-04-19 18:19:00,35.5,26.3,29.83,NW,311,6.0,16.0,69,0.00,,,0.00,Wunderground v.1.15,2013-04-19 23:19:00,
2013-04-19 18:25:00,35.5,26.0,29.84,NW,309,6.0,16.0,68,0.00,,,0.00,Wunderground v.1.15,2013-04-19 23:25:00,
2013-04-19 18:31:00,35.5,26.0,29.84,WSW,257,7.0,16.0,68,0.00,,,0.00,Wunderground v.1.15,2013-04-19 23:31:00,
2013-04-19 18:37:00,35.6,26.1,29.84,WNW,295,6.0,16.0,68,0.00,,,0.00,Wunderground v.1.15,2013-04-19 23:37:00,
2013-04-19 18:43:00,35.6,26.1,29.84,WNW,288,5.0,16.0,68,0.00,,,0.00,Wunderground v.1.15,2013-04-19 23:43:00,
2013-04-19 18:49:00,35.5,26.3,29.85,NW,304,5.0,5.0,69,0.00,,,0.00,Wunderground v.1.15,2013-04-19 23:49:00,
2013-04-19 18:55:00,35.5,26.3,29.85,NW,309,5.0,16.0,69,0.00,,,0.00,Wunderground v.1.15,2013-04-19 23:55:00,
2013-04-19 19:01:00,35.4,26.6,29.86,NW,319,6.0,16.0,70,0.00,,,0.00,Wunderground v.1.15,2013-04-20 00:01:00,
2013-04-19 19:07:00,35.4,26.6,29.85,WSW,244,5.0,16.0,70,0.00,,,0.00,Wunderground v.1.15,2013-04-20 00:07:00,
2013-04-19 19:13:00,35.4,26.6,29.86,NW,315,6.0,16.0,70,0.00,,,0.00,Wunderground v.1.15,2013-04-20 00:13:00,
2013-04-19 19:19:00,35.4,26.6,29.86,NW,316,6.0,16.0,70,0.00,,,0.00,Wunderground v.1.15,2013-04-20 00:19:00,
2013-04-19 19:25:00,35.4,26.6,29.87,NNW,339,6.0,16.0,70,0.00,,,0.00,Wunderground v.1.15,2013-04-20 00:25:00,
2013-04-19 19:31:00,35.4,26.6,29.87,NW,326,6.0,16.0,70,0.00,,,0.00,Wunderground v.1.15,2013-04-20 00:31:00,
2013-04-19 19:37:00,35.3,26.5,29.87,WNW,302,5.0,16.0,70,0.00,,,0.00,Wunderground v.1.15,2013-04-20 00:37:00,
2013-04-19 19:43:00,35.3,26.5,29.87,NW,315,5.0,16.0,70,0.00,,,0.00,Wunderground v.1.15,2013-04-20 00:43:00,
2013-04-19 19:49:00,35.2,26.4,29.88,WNW,283,4.0,4.0,70,0.00,,,0.00,Wunderground v.1.15,2013-04-20 00:49:00,
2013-04-19 19:55:00,35.1,26.3,29.88,West,266,5.0,16.0,70,0.00,,,0.00,Wunderground v.1.15,2013-04-20 00:55:00,
2013-04-19 20:01:00,35.0,26.5,29.88,NW,307,5.0,16.0,71,0.00,,,0.00,Wunderground v.1.15,2013-04-20 01:01:00,
2013-04-19 20:07:00,35.0,26.5,29.88,NW,315,5.0,16.0,71,0.00,,,0.00,Wunderground v.1.15,2013-04-20 01:07:00,
2013-04-19 20:13:00,35.0,26.5,29.89,NW,307,5.0,16.0,71,0.00,,,0.00,Wunderground v.1.15,2013-04-20 01:13:00,
2013-04-19 20:19:00,35.0,26.2,29.89,WNW,283,6.0,16.0,70,0.00,,,0.00,Wunderground v.1.15,2013-04-20 01:19:00,
2013-04-19 20:25:00,34.9,26.1,29.89,WNW,297,6.0,16.0,70,0.00,,,0.00,Wunderground v.1.15,2013-04-20 01:25:00,
2013-04-19 20:31:00,34.8,26.0,29.89,WNW,297,6.0,16.0,70,0.00,,,0.00,Wunderground v.1.15,2013-04-20 01:31:00,
2013-04-19 20:37:00,34.7,25.9,29.90,WSW,253,6.0,16.0,70,0.00,,,0.00,Wunderground v.1.15,2013-04-20 01:37:00,
2013-04-19 20:43:00,34.6,26.2,29.90,WNW,293,5.0,16.0,71,0.00,,,0.00,Wunderground v.1.15,2013-04-20 01:43:00,
2013-04-19 20:49:00,34.6,26.2,29.90,NW,307,4.0,16.0,71,0.00,,,0.00,Wunderground v.1.15,2013-04-20 01:49:00,
2013-04-19 20:55:00,34.6,26.2,29.91,NW,308,4.0,16.0,71,0.00,,,0.00,Wunderground v.1.15,2013-04-20 01:55:00,
2013-04-19 21:01:00,34.5,26.4,29.91,NW,319,5.0,16.0,72,0.00,,,0.00,Wunderground v.1.15,2013-04-20 02:01:00,
2013-04-19 21:07:00,34.4,26.6,29.92,South,183,5.0,16.0,73,0.00,,,0.00,Wunderground v.1.15,2013-04-20 02:07:00,
2013-04-19 21:13:00,34.1,27.0,29.92,WNW,300,4.0,16.0,75,0.00,,,0.00,Wunderground v.1.15,2013-04-20 02:13:00,
2013-04-19 21:19:00,34.0,27.2,29.92,WSW,248,4.0,4.0,76,0.00,,,0.00,Wunderground v.1.15,2013-04-20 02:19:00,
2013-04-19 21:25:00,33.9,27.4,29.93,WNW,296,4.0,16.0,77,0.00,,,0.00,Wunderground v.1.15,2013-04-20 02:25:00,
2013-04-19 21:31:00,33.6,27.2,29.93,NW,311,4.0,16.0,77,0.00,,,0.00,Wunderground v.1.15,2013-04-20 02:31:00,
2013-04-19 21:37:00,33.5,27.1,29.93,WNW,301,3.0,16.0,77,0.00,,,0.00,Wunderground v.1.15,2013-04-20 02:37:00,
2013-04-19 21:43:00,33.5,27.1,29.93,West,277,4.0,16.0,77,0.00,,,0.00,Wunderground v.1.15,2013-04-20 02:43:00,
2013-04-19 21:49:00,33.3,26.9,29.94,NW,311,4.0,4.0,77,0.00,,,0.00,Wunderground v.1.15,2013-04-20 02:49:00,
2013-04-19 21:55:00,33.1,26.7,29.94,WNW,293,3.0,16.0,77,0.00,,,0.00,Wunderground v.1.15,2013-04-20 02:55:00,
2013-04-19 22:01:00,32.9,26.5,29.94,WNW,285,3.0,16.0,77,0.00,,,0.00,Wunderground v.1.15,2013-04-20 03:01:00,
2013-04-19 22:07:00,32.7,26.6,29.94,WNW,290,3.0,16.0,78,0.00,,,0.00,Wunderground v.1.15,2013-04-20 03:07:00,
2013-04-19 22:13:00,32.7,26.9,29.94,NW,323,4.0,16.0,79,0.00,,,0.00,Wunderground v.1.15,2013-04-20 03:13:00,
2013-04-19 22:19:00,32.6,26.8,29.95,WNW,301,4.0,16.0,79,0.00,,,0.00,Wunderground v.1.15,2013-04-20 03:19:00,
2013-04-19 22:25:00,32.5,26.7,29.95,West,281,4.0,16.0,79,0.00,,,0.00,Wunderground v.1.15,2013-04-20 03:25:00,
2013-04-19 22:31:00,32.3,26.5,29.95,WNW,290,4.0,16.0,79,0.00,,,0.00,Wunderground v.1.15,2013-04-20 03:31:00,
2013-04-19 22:37:00,32.3,26.5,29.95,NW,326,3.0,16.0,79,0.00,,,0.00,Wunderground v.1.15,2013-04-20 03:37:00,
2013-04-19 22:43:00,32.2,26.4,29.95,NNE,25,3.0,16.0,79,0.00,,,0.00,Wunderground v.1.15,2013-04-20 03:43:00,
2013-04-19 22:49:00,32.1,26.3,29.95,WNW,293,3.0,3.0,79,0.00,,,0.00,Wunderground v.1.15,2013-04-20 03:49:00,
2013-04-19 22:55:00,32.1,26.3,29.96,NW,311,3.0,16.0,79,0.00,,,0.00,Wunderground v.1.15,2013-04-20 03:55:00,
2013-04-19 23:01:00,31.9,26.4,29.96,NW,307,3.0,16.0,80,0.00,,,0.00,Wunderground v.1.15,2013-04-20 04:01:00,
2013-04-19 23:07:00,31.7,26.5,29.96,NW,311,2.0,16.0,81,0.00,,,0.00,Wunderground v.1.15,2013-04-20 04:07:00,
2013-04-19 23:09:00,31.7,26.5,29.96,WSW,258,2.0,16.0,81,0.00,,,0.00,Wunderground v.1.15,2013-04-20 04:09:00,
2013-04-19 23:11:00,31.7,26.5,29.96,WNW,297,3.0,16.0,81,0.00,,,0.00,Wunderground v.1.15,2013-04-20 04:11:00,
2013-04-19 23:17:00,31.5,26.3,29.96,WNW,287,2.0,16.0,81,0.00,,,0.00,Wunderground v.1.15,2013-04-20 04:17:00,
2013-04-19 23:23:00,31.4,26.5,29.96,NW,314,2.0,16.0,82,0.00,,,0.00,Wunderground v.1.15,2013-04-20 04:23:00,
2013-04-19 23:25:00,31.4,26.5,29.96,West,274,3.0,16.0,82,0.00,,,0.00,Wunderground v.1.15,2013-04-20 04:25:00,
2013-04-19 23:31:00,31.4,26.5,29.97,West,270,3.0,16.0,82,0.00,,,0.00,Wunderground v.1.15,2013-04-20 04:31:00,
2013-04-19 23:37:00,31.2,26.3,29.97,WNW,295,2.0,16.0,82,0.00,,,0.00,Wunderground v.1.15,2013-04-20 04:37:00,
2013-04-19 23:43:00,31.1,26.5,29.97,West,276,2.0,16.0,83,0.00,,,0.00,Wunderground v.1.15,2013-04-20 04:43:00,
2013-04-19 23:49:00,31.0,26.4,29.97,WSW,253,3.0,16.0,83,0.00,,,0.00,Wunderground v.1.15,2013-04-20 04:49:00,
2013-04-19 23:55:00,30.9,26.3,29.98,West,270,3.0,16.0,83,0.00,,,0.00,Wunderground v.1.15,2013-04-20 04:55:00,